VKG1756 GCLP-ENVA

Flight info

Callsign VKG1756
Flight time N/A
Altitude 38000
Route BIMBO DCT LIDRO DCT MANOX/M080F380 T13 OMOKO DCT GUNSO/N0453F380 DCT KURUM DCT ROTEV DCT BLACA DCT TRN DCT GOSAM DCT GRICE DCT PTH DCT ASNUD DCT BEREP DCT OTRAX DCT BASTU DCT NELSU
Aircraft A339/H-SADE1E2E3GHIJ3J5M1P2RWXY/LB2D1

Departure

Time N/A
Airport Gran Canaria Airport (GCLP)

Arrival

Time 2026-04-27 22:37
Airport Trondheim Airport, Værnes (ENVA)
Time Latitude Longitude Altitude Speed Heading
2026-04-27 20:37 54.41501 -5.66180 36406 ft 402 kts 28°
2026-04-27 20:38 54.46266 -5.61127 36402 ft 402 kts 28°
2026-04-27 20:38 54.51026 -5.56065 36403 ft 402 kts 28°
2026-04-27 20:39 54.55754 -5.51023 36401 ft 402 kts 28°
2026-04-27 20:39 54.60520 -5.45926 36405 ft 402 kts 28°
2026-04-27 20:40 54.65268 -5.40835 36404 ft 402 kts 29°
2026-04-27 20:40 54.70015 -5.35731 36404 ft 402 kts 29°
2026-04-27 20:41 54.74756 -5.30618 36400 ft 401 kts 29°
2026-04-27 20:41 54.79489 -5.25499 36395 ft 401 kts 29°
2026-04-27 20:42 54.84223 -5.20367 36389 ft 401 kts 29°
2026-04-27 20:42 54.88947 -5.15346 36385 ft 399 kts 25°
2026-04-27 20:43 54.93920 -5.11083 36383 ft 399 kts 24°
2026-04-27 20:43 54.98894 -5.06783 36388 ft 399 kts 24°
2026-04-27 20:44 55.03547 -5.01509 36377 ft 403 kts 36°
2026-04-27 20:44 55.07801 -4.95121 36387 ft 403 kts 37°
2026-04-27 20:45 55.12053 -4.88812 36391 ft 403 kts 36°
2026-04-27 20:45 55.14203 -4.85661 36530 ft 405 kts 36°
2026-04-27 20:45 55.16366 -4.82501 36803 ft 405 kts 36°
2026-04-27 20:46 55.18536 -4.79329 37069 ft 406 kts 36°
2026-04-27 20:46 55.20707 -4.76151 37290 ft 407 kts 36°
2026-04-27 20:46 55.22880 -4.72962 37555 ft 408 kts 36°
2026-04-27 20:46 55.25059 -4.69761 37807 ft 409 kts 36°
2026-04-27 20:47 55.27241 -4.66548 38049 ft 410 kts 36°
2026-04-27 20:47 55.29424 -4.63327 38291 ft 411 kts 37°
2026-04-27 20:47 55.31615 -4.60086 38546 ft 412 kts 37°
2026-04-27 20:47 55.33802 -4.56847 38782 ft 413 kts 37°
2026-04-27 20:48 55.35997 -4.53591 39019 ft 413 kts 37°
2026-04-27 20:48 55.38199 -4.50321 39198 ft 414 kts 37°
2026-04-27 20:48 55.40401 -4.47044 39360 ft 416 kts 37°
2026-04-27 20:48 55.42606 -4.43759 39390 ft 415 kts 37°
2026-04-27 20:49 55.46977 -4.37229 39398 ft 414 kts 37°
2026-04-27 20:49 55.51386 -4.30624 39395 ft 413 kts 37°
2026-04-27 20:50 55.55730 -4.24099 39395 ft 413 kts 37°
2026-04-27 20:50 55.60122 -4.17481 39394 ft 413 kts 37°
2026-04-27 20:51 55.64497 -4.10870 39393 ft 413 kts 37°
2026-04-27 20:51 55.68837 -4.04289 39393 ft 413 kts 37°
2026-04-27 20:52 55.73199 -3.97654 39388 ft 413 kts 37°
2026-04-27 20:52 55.77557 -3.91007 39382 ft 413 kts 37°
2026-04-27 20:53 55.81920 -3.84331 39382 ft 413 kts 38°
2026-04-27 20:53 55.86246 -3.77691 39390 ft 413 kts 38°
2026-04-27 20:54 55.92772 -3.67638 39397 ft 413 kts 38°
2026-04-27 20:55 55.97119 -3.60914 39418 ft 413 kts 38°
2026-04-27 20:55 56.01468 -3.54166 39428 ft 414 kts 38°
2026-04-27 20:56 56.05811 -3.47406 39417 ft 414 kts 38°
2026-04-27 20:56 56.10159 -3.40619 39409 ft 414 kts 38°
2026-04-27 20:57 56.14502 -3.33819 39417 ft 414 kts 38°
2026-04-27 20:57 56.18818 -3.27040 39434 ft 414 kts 38°
2026-04-27 20:58 56.23158 -3.20200 39421 ft 414 kts 38°
2026-04-27 20:58 56.27495 -3.13343 39426 ft 415 kts 38°
2026-04-27 20:59 56.31825 -3.06478 39424 ft 415 kts 38°
2026-04-27 20:59 56.36156 -2.99588 39427 ft 415 kts 38°
2026-04-27 21:00 56.40454 -2.92730 39426 ft 415 kts 38°
2026-04-27 21:00 56.44781 -2.85804 39428 ft 415 kts 39°
2026-04-27 21:01 56.49100 -2.78868 39427 ft 415 kts 39°
2026-04-27 21:01 56.53414 -2.71919 39426 ft 415 kts 39°
2026-04-27 21:02 56.57731 -2.64943 39426 ft 415 kts 39°
2026-04-27 21:02 56.62034 -2.57967 39430 ft 415 kts 39°
2026-04-27 21:03 56.66339 -2.50965 39432 ft 415 kts 39°
2026-04-27 21:03 56.70641 -2.43946 39434 ft 415 kts 39°
2026-04-27 21:04 56.74936 -2.36915 39437 ft 415 kts 39°
2026-04-27 21:04 56.79230 -2.29864 39443 ft 415 kts 39°
2026-04-27 21:05 56.83521 -2.22796 39441 ft 415 kts 39°
2026-04-27 21:05 56.87783 -2.15753 39444 ft 415 kts 39°
2026-04-27 21:06 56.92064 -2.08654 39444 ft 415 kts 39°
2026-04-27 21:06 56.96340 -2.01541 39451 ft 415 kts 39°
2026-04-27 21:07 57.00610 -1.94415 39453 ft 415 kts 39°
2026-04-27 21:07 57.04859 -1.87302 39455 ft 415 kts 39°
2026-04-27 21:08 57.09124 -1.80137 39455 ft 415 kts 39°
2026-04-27 21:08 57.13399 -1.72934 39454 ft 415 kts 39°
2026-04-27 21:09 57.17654 -1.65741 39455 ft 415 kts 40°
2026-04-27 21:09 57.21903 -1.58533 39455 ft 415 kts 40°
2026-04-27 21:10 57.26156 -1.51295 39454 ft 415 kts 40°
2026-04-27 21:10 57.30376 -1.44090 39455 ft 415 kts 40°
2026-04-27 21:11 57.34618 -1.36823 39455 ft 415 kts 40°
2026-04-27 21:11 57.38859 -1.29536 39459 ft 415 kts 40°
2026-04-27 21:12 57.43061 -1.22290 39456 ft 415 kts 40°
2026-04-27 21:12 57.47284 -1.14984 39459 ft 415 kts 40°
2026-04-27 21:13 57.51514 -1.07643 39454 ft 415 kts 40°
2026-04-27 21:13 57.55025 -1.01530 39454 ft 415 kts 40°
2026-04-27 21:14 57.59244 -0.94162 39457 ft 415 kts 40°
2026-04-27 21:14 57.63453 -0.86787 39457 ft 415 kts 40°
2026-04-27 21:15 57.68346 -0.78183 39458 ft 416 kts 40°
2026-04-27 21:15 57.71846 -0.72008 39457 ft 416 kts 40°
2026-04-27 21:16 57.76054 -0.64560 39458 ft 416 kts 40°
2026-04-27 21:16 57.80251 -0.57107 39456 ft 416 kts 40°
2026-04-27 21:17 57.84449 -0.49626 39454 ft 416 kts 40°
2026-04-27 21:17 57.88650 -0.42116 39463 ft 416 kts 40°
2026-04-27 21:18 57.92843 -0.34593 39455 ft 417 kts 40°
2026-04-27 21:18 57.97015 -0.27084 39452 ft 417 kts 40°
2026-04-27 21:19 58.01211 -0.19506 39457 ft 417 kts 41°
2026-04-27 21:19 58.05404 -0.11906 39458 ft 418 kts 41°
2026-04-27 21:20 58.11689 -0.00467 39461 ft 418 kts 41°
2026-04-27 21:20 58.15875 0.07185 39460 ft 418 kts 41°
2026-04-27 21:21 58.20060 0.14862 39468 ft 419 kts 41°
2026-04-27 21:21 58.24243 0.22561 39465 ft 419 kts 41°
2026-04-27 21:22 58.28400 0.30240 39465 ft 419 kts 41°
2026-04-27 21:22 58.32577 0.37982 39464 ft 419 kts 41°
2026-04-27 21:23 58.36754 0.45751 39464 ft 419 kts 41°
2026-04-27 21:23 58.40895 0.53480 39461 ft 420 kts 41°
2026-04-27 21:24 58.45063 0.61287 39467 ft 420 kts 41°
2026-04-27 21:24 58.49228 0.69113 39469 ft 420 kts 41°
2026-04-27 21:25 58.53396 0.76975 39467 ft 420 kts 41°
2026-04-27 21:25 58.57554 0.84845 39467 ft 420 kts 41°
2026-04-27 21:26 58.61708 0.92735 39470 ft 420 kts 41°
2026-04-27 21:26 58.65864 1.00659 39463 ft 420 kts 41°
2026-04-27 21:27 58.69982 1.08536 39465 ft 420 kts 41°
2026-04-27 21:27 58.74148 1.16534 39463 ft 420 kts 41°
2026-04-27 21:28 58.78262 1.24461 39462 ft 421 kts 41°
2026-04-27 21:28 58.82402 1.32466 39459 ft 421 kts 41°
2026-04-27 21:29 58.86533 1.40481 39451 ft 421 kts 41°
2026-04-27 21:29 58.90662 1.48514 39446 ft 421 kts 41°
2026-04-27 21:30 58.94795 1.56572 39450 ft 422 kts 41°
2026-04-27 21:30 58.98921 1.64647 39455 ft 422 kts 41°
2026-04-27 21:31 59.03047 1.72753 39460 ft 422 kts 42°
2026-04-27 21:31 59.07262 1.80535 39461 ft 420 kts 38°
2026-04-27 21:32 59.11665 1.88021 39466 ft 420 kts 38°
2026-04-27 21:32 59.16046 1.95586 39461 ft 421 kts 38°
2026-04-27 21:33 59.20406 2.03218 39462 ft 421 kts 38°
2026-04-27 21:33 59.24768 2.10897 39464 ft 421 kts 38°
2026-04-27 21:34 59.29121 2.18583 39461 ft 422 kts 39°
2026-04-27 21:34 59.33470 2.26291 39465 ft 422 kts 39°
2026-04-27 21:35 59.37820 2.34029 39460 ft 422 kts 39°
2026-04-27 21:35 59.42161 2.41778 39456 ft 422 kts 39°
2026-04-27 21:36 59.46503 2.49555 39455 ft 422 kts 39°
2026-04-27 21:36 59.50845 2.57362 39457 ft 423 kts 39°
2026-04-27 21:37 59.55155 2.65140 39458 ft 423 kts 39°
2026-04-27 21:37 59.59489 2.72989 39456 ft 423 kts 39°
2026-04-27 21:38 59.63821 2.80864 39464 ft 423 kts 39°
2026-04-27 21:38 59.68158 2.88776 39463 ft 423 kts 39°
2026-04-27 21:39 59.72484 2.96697 39472 ft 424 kts 39°
2026-04-27 21:39 59.76809 3.04647 39466 ft 424 kts 39°
2026-04-27 21:40 59.81111 3.12584 39467 ft 424 kts 39°
2026-04-27 21:40 59.85429 3.20579 39462 ft 424 kts 39°
2026-04-27 21:41 59.89742 3.28596 39465 ft 424 kts 39°
2026-04-27 21:41 59.94033 3.36599 39462 ft 424 kts 39°
2026-04-27 21:42 59.98340 3.44665 39463 ft 425 kts 39°
2026-04-27 21:42 60.02652 3.52768 39460 ft 425 kts 39°
2026-04-27 21:43 60.06959 3.60895 39461 ft 425 kts 39°
2026-04-27 21:43 60.11257 3.69034 39461 ft 426 kts 39°
2026-04-27 21:44 60.15557 3.77208 39454 ft 426 kts 39°
2026-04-27 21:44 60.19859 3.85415 39461 ft 426 kts 39°
2026-04-27 21:45 60.24130 3.93596 39463 ft 426 kts 39°
2026-04-27 21:45 60.28424 4.01851 39464 ft 426 kts 39°
2026-04-27 21:46 60.32719 4.10141 39466 ft 427 kts 40°
2026-04-27 21:46 60.37000 4.18436 39453 ft 427 kts 40°
2026-04-27 21:47 60.41285 4.26768 39455 ft 427 kts 40°
2026-04-27 21:47 60.45534 4.35056 39458 ft 427 kts 40°
2026-04-27 21:48 60.49828 4.43396 39454 ft 427 kts 39°
2026-04-27 21:48 60.54159 4.51638 39447 ft 427 kts 39°
2026-04-27 21:49 60.58493 4.59908 39443 ft 427 kts 39°
2026-04-27 21:49 60.62790 4.68168 39444 ft 427 kts 39°
2026-04-27 21:50 60.67106 4.76504 39442 ft 427 kts 39°
2026-04-27 21:50 60.71417 4.84863 39433 ft 427 kts 39°
2026-04-27 21:51 60.75731 4.93260 39438 ft 428 kts 39°
2026-04-27 21:51 60.80019 5.01637 39429 ft 428 kts 39°
2026-04-27 21:52 60.84349 5.10131 39432 ft 428 kts 39°
2026-04-27 21:52 60.88621 5.18545 39435 ft 428 kts 39°
2026-04-27 21:53 60.92911 5.27029 39440 ft 428 kts 39°
2026-04-27 21:53 60.97207 5.35555 39433 ft 428 kts 39°
2026-04-27 21:54 61.01495 5.44102 39433 ft 428 kts 40°
2026-04-27 21:54 61.05747 5.52609 39425 ft 429 kts 40°
2026-04-27 21:55 61.10027 5.61204 39424 ft 429 kts 40°
2026-04-27 21:55 61.14302 5.69825 39420 ft 429 kts 40°
2026-04-27 21:56 61.20703 5.82797 39410 ft 429 kts 40°
2026-04-27 21:57 61.24968 5.91483 39408 ft 429 kts 40°
2026-04-27 21:57 61.29233 6.00207 39406 ft 429 kts 40°
2026-04-27 21:58 61.33461 6.08887 39411 ft 430 kts 40°
2026-04-27 21:58 61.37714 6.17655 39413 ft 430 kts 40°
2026-04-27 21:59 61.41957 6.26441 39407 ft 429 kts 40°
2026-04-27 21:59 61.46188 6.35238 39406 ft 428 kts 40°
2026-04-27 22:00 61.50413 6.44051 39404 ft 429 kts 40°
2026-04-27 22:00 61.54644 6.52912 39408 ft 430 kts 40°
2026-04-27 22:01 61.58872 6.61812 39412 ft 430 kts 40°
2026-04-27 22:01 61.63062 6.70662 39432 ft 429 kts 40°
2026-04-27 22:02 61.67274 6.79596 39437 ft 429 kts 40°
2026-04-27 22:02 61.70773 6.87045 39440 ft 430 kts 40°
2026-04-27 22:03 61.74974 6.96014 39455 ft 430 kts 40°
2026-04-27 22:03 61.79346 7.04584 39469 ft 427 kts 36°
2026-04-27 22:04 61.83893 7.12740 39477 ft 429 kts 36°
2026-04-27 22:04 61.88410 7.21036 39476 ft 430 kts 37°
2026-04-27 22:05 61.92905 7.29429 39449 ft 430 kts 37°
2026-04-27 22:05 61.97366 7.37805 39436 ft 431 kts 37°
2026-04-27 22:06 62.01857 7.46270 39438 ft 431 kts 37°
2026-04-27 22:06 62.06338 7.54749 39432 ft 430 kts 37°
2026-04-27 22:07 62.10811 7.63245 39433 ft 430 kts 37°
2026-04-27 22:07 62.15284 7.71777 39428 ft 430 kts 37°
2026-04-27 22:08 62.19746 7.80322 39430 ft 431 kts 37°
2026-04-27 22:08 62.24215 7.88917 39434 ft 431 kts 37°
2026-04-27 22:09 62.28636 7.97455 39432 ft 431 kts 37°
2026-04-27 22:09 62.33093 8.06097 39435 ft 431 kts 37°
2026-04-27 22:10 62.37549 8.14774 39436 ft 431 kts 37°
2026-04-27 22:10 62.42003 8.23479 39445 ft 432 kts 37°
2026-04-27 22:11 62.46457 8.32229 39456 ft 433 kts 37°
2026-04-27 22:11 62.50906 8.41005 39466 ft 433 kts 38°
2026-04-27 22:12 62.55324 8.49751 39468 ft 433 kts 38°
2026-04-27 22:12 62.59777 8.58607 39459 ft 434 kts 38°
2026-04-27 22:13 62.64226 8.67495 39456 ft 435 kts 38°
2026-04-27 22:13 62.68674 8.76416 39461 ft 435 kts 38°
2026-04-27 22:14 62.73118 8.85369 39466 ft 435 kts 38°
2026-04-27 22:14 62.77563 8.94361 39473 ft 436 kts 38°
2026-04-27 22:15 62.82002 9.03380 39474 ft 436 kts 38°
2026-04-27 22:15 62.86441 9.12440 39472 ft 436 kts 38°
2026-04-27 22:16 62.90839 9.21454 39473 ft 436 kts 38°
2026-04-27 22:16 62.95271 9.30574 39475 ft 436 kts 38°
2026-04-27 22:17 62.99699 9.39726 39478 ft 437 kts 38°
2026-04-27 22:17 63.04121 9.48908 39476 ft 437 kts 38°
2026-04-27 22:18 63.08450 9.58234 38825 ft 436 kts 45°
2026-04-27 22:18 63.10157 9.63814 38068 ft 443 kts 56°
2026-04-27 22:18 63.11341 9.70145 37257 ft 451 kts 67°
2026-04-27 22:18 63.11959 9.76934 36395 ft 457 kts 75°
2026-04-27 22:19 63.12431 9.83906 35463 ft 458 kts 74°
2026-04-27 22:19 63.12910 9.90853 34575 ft 458 kts 73°
2026-04-27 22:19 63.13399 9.97813 33500 ft 457 kts 73°
2026-04-27 22:19 63.13893 10.04765 32320 ft 459 kts 73°
2026-04-27 22:20 63.14388 10.11753 31295 ft 458 kts 72°
2026-04-27 22:20 63.14866 10.18647 30571 ft 450 kts 72°
2026-04-27 22:20 63.15334 10.25436 29665 ft 443 kts 72°
2026-04-27 22:20 63.15796 10.32143 28725 ft 438 kts 73°
2026-04-27 22:21 63.16252 10.38768 27806 ft 433 kts 73°
2026-04-27 22:21 63.16699 10.45311 26963 ft 427 kts 73°
2026-04-27 22:21 63.17139 10.51794 26098 ft 423 kts 73°
2026-04-27 22:21 63.17571 10.58205 25266 ft 418 kts 74°
2026-04-27 22:22 63.17990 10.64460 24451 ft 414 kts 74°
2026-04-27 22:22 63.18406 10.70722 23556 ft 409 kts 75°
2026-04-27 22:22 63.18813 10.76924 22664 ft 403 kts 75°
2026-04-27 22:22 63.19209 10.83013 21773 ft 397 kts 75°
2026-04-27 22:23 63.19600 10.89035 20888 ft 392 kts 75°
2026-04-27 22:23 63.19982 10.94970 20016 ft 386 kts 75°
2026-04-27 22:23 63.20357 11.00827 19177 ft 381 kts 75°
2026-04-27 22:23 63.20726 11.06610 18271 ft 377 kts 75°
2026-04-27 22:24 63.21086 11.12320 17335 ft 371 kts 75°
2026-04-27 22:24 63.21437 11.17930 16482 ft 364 kts 75°
2026-04-27 22:24 63.21780 11.23451 15610 ft 359 kts 75°
2026-04-27 22:24 63.22117 11.28897 14793 ft 354 kts 75°
2026-04-27 22:25 63.22448 11.34271 13915 ft 349 kts 76°
2026-04-27 22:25 63.22705 11.39596 13034 ft 348 kts 82°
2026-04-27 22:25 63.22596 11.44952 12426 ft 349 kts 91°
2026-04-27 22:25 63.22210 11.50236 11832 ft 345 kts 94°
2026-04-27 22:26 63.21958 11.55429 11196 ft 334 kts 84°
2026-04-27 22:26 63.22217 11.60376 10798 ft 309 kts 70°
2026-04-27 22:26 63.22792 11.64731 10622 ft 290 kts 66°
2026-04-27 22:26 63.23356 11.68884 10475 ft 271 kts 65°
2026-04-27 22:27 63.24099 11.72533 10297 ft 248 kts 52°
2026-04-27 22:27 63.25089 11.75517 9884 ft 236 kts 41°
2026-04-27 22:27 63.26175 11.78155 9622 ft 227 kts 41°
2026-04-27 22:27 63.27263 11.80752 9044 ft 230 kts 37°
2026-04-27 22:28 63.28652 11.82333 8473 ft 223 kts
2026-04-27 22:28 63.30174 11.82129 7906 ft 221 kts 341°
2026-04-27 22:28 63.31430 11.80198 7365 ft 225 kts 312°
2026-04-27 22:28 63.32212 11.77172 6878 ft 227 kts 298°
2026-04-27 22:29 63.32860 11.73957 6383 ft 226 kts 298°
2026-04-27 22:29 63.33546 11.70857 5893 ft 225 kts 301°
2026-04-27 22:29 63.34316 11.67845 5434 ft 223 kts 304°
2026-04-27 22:29 63.35128 11.64955 5194 ft 217 kts 305°
2026-04-27 22:30 63.35989 11.62021 5073 ft 224 kts 306°
2026-04-27 22:30 63.36823 11.59181 4993 ft 221 kts 306°
2026-04-27 22:30 63.37673 11.56292 4987 ft 223 kts 306°
2026-04-27 22:30 63.38767 11.53871 4962 ft 222 kts 328°
2026-04-27 22:31 63.40173 11.52541 4826 ft 220 kts 343°
2026-04-27 22:31 63.41634 11.51542 4705 ft 219 kts 342°
2026-04-27 22:31 63.43091 11.50505 4692 ft 220 kts 342°
2026-04-27 22:31 63.44487 11.49139 4673 ft 221 kts 325°
2026-04-27 22:32 63.45381 11.46366 4606 ft 224 kts 292°
2026-04-27 22:32 63.45662 11.42964 4593 ft 219 kts 277°
2026-04-27 22:32 63.45676 11.39633 4394 ft 211 kts 272°
2026-04-27 22:32 63.45664 11.36381 4242 ft 211 kts 274°
2026-04-27 22:33 63.45675 11.33188 4092 ft 203 kts 273°
2026-04-27 22:33 63.45681 11.30075 3871 ft 199 kts 273°
2026-04-27 22:33 63.45688 11.26992 3578 ft 198 kts 273°
2026-04-27 22:33 63.45690 11.23942 3283 ft 194 kts 273°
2026-04-27 22:34 63.45700 11.20948 2999 ft 188 kts 272°
2026-04-27 22:34 63.45706 11.18114 2697 ft 177 kts 272°
2026-04-27 22:34 63.45712 11.15441 2422 ft 167 kts 272°
2026-04-27 22:34 63.45717 11.12913 2166 ft 158 kts 272°
2026-04-27 22:35 63.45723 11.10561 1888 ft 145 kts 271°
2026-04-27 22:35 63.45728 11.08274 1597 ft 147 kts 271°
2026-04-27 22:35 63.45734 11.06018 1310 ft 146 kts 270°
2026-04-27 22:35 63.45731 11.03732 1045 ft 144 kts 270°
2026-04-27 22:36 63.45726 11.01454 838 ft 147 kts 270°
2026-04-27 22:36 63.45733 10.99197 620 ft 147 kts 271°
2026-04-27 22:36 63.45747 10.96949 397 ft 142 kts 271°
2026-04-27 22:36 63.45750 10.94738 186 ft 142 kts 270°
2026-04-27 22:37 63.45756 10.92576 48 ft 132 kts 271°
2026-04-27 22:37 63.45765 10.90944 40 ft 79 kts 270°
2026-04-27 22:37 63.45768 10.90094 37 ft 40 kts 270°
2026-04-27 22:37 63.45771 10.89521 35 ft 24 kts 270°
2026-04-27 22:38 63.45730 10.89276 35 ft 13 kts 200°
2026-04-27 22:38 63.45649 10.89252 34 ft 10 kts 180°
2026-04-27 22:38 63.45604 10.89315 35 ft 8 kts 121°
2026-04-27 22:38 63.45597 10.89446 35 ft 10 kts 91°
2026-04-27 22:39 63.45598 10.89610 35 ft 11 kts 90°
2026-04-27 22:39 63.45599 10.89800 35 ft 13 kts 90°
2026-04-27 22:39 63.45599 10.90003 36 ft 13 kts 90°
2026-04-27 22:39 63.45598 10.90217 38 ft 14 kts 90°
2026-04-27 22:40 63.45597 10.90443 39 ft 15 kts 90°
2026-04-27 22:40 63.45596 10.90677 40 ft 15 kts 90°
2026-04-27 22:40 63.45595 10.90920 41 ft 16 kts 90°
2026-04-27 22:40 63.45595 10.91182 41 ft 17 kts 90°
2026-04-27 22:41 63.45595 10.91444 44 ft 17 kts 90°
2026-04-27 22:41 63.45595 10.91709 45 ft 18 kts 90°
2026-04-27 22:41 63.45594 10.91959 46 ft 15 kts 90°
2026-04-27 22:41 63.45593 10.92151 47 ft 12 kts 90°
2026-04-27 22:42 63.45593 10.92310 47 ft 9 kts 90°
2026-04-27 22:42 63.45582 10.92389 48 ft 6 kts 120°
2026-04-27 22:42 63.45538 10.92431 48 ft 7 kts 163°
2026-04-27 22:42 63.45508 10.92436 48 ft 4 kts 182°
2026-04-27 22:43 63.45474 10.92430 48 ft 6 kts 184°
2026-04-27 22:43 63.45446 10.92409 48 ft 1 kts 215°
2026-04-27 22:43 63.45443 10.92360 47 ft 5 kts 259°
2026-04-27 22:43 63.45442 10.92293 45 ft 2 kts 269°
2026-04-27 22:44 63.45442 10.92282 45 ft 0 kts 269°